EW8360 Weather Reports


time (UTC)temp
C
wind
direction
speed
KPH
gust
KPH
rain 1hr
cm
rain 24hr
cm
rain mn
cm
humidity
%
barometer
mb
20200531073513 17 12 6.4 12.9 0.00 0.00 0.00 87 1012.0
20200531073010 17 357 3.2 16.1 0.00 0.00 0.00 86 1012.0
20200531072512 17 344 4.8 16.1 0.00 0.00 0.00 86 1012.0
20200531072013 17 11 3.2 12.9 0.00 0.00 0.00 86 1012.0
20200531071511 17 357 3.2 12.9 0.00 0.00 0.00 86 1012.0
20200531071009 17 356 4.8 12.9 0.00 0.00 0.00 86 1012.1
20200531070509 17 0 4.8 12.9 0.00 0.00 0.00 86 1012.0
20200531070011 17 16 4.8 8.0 0.00 0.00 0.00 86 1012.1
20200531065512 17 323 0.0 8.0 0.00 0.00 0.00 86 1012.0
20200531065009 17 356 1.6 8.0 0.00 0.00 0.00 86 1012.0
20200531064509 17 18 4.8 12.9 0.00 0.00 0.00 86 1012.0
20200531064011 17 11 3.2 12.9 0.00 0.00 0.00 86 1012.1
20200531063510 17 41 8.0 16.1 0.00 0.00 0.00 85 1012.2
20200531063010 17 23 3.2 16.1 0.00 0.00 0.00 85 1012.2
20200531062508 17 7 4.8 12.9 0.00 0.00 0.00 85 1012.2
20200531062008 17 16 1.6 12.9 0.00 0.00 0.00 85 1012.4
20200531061511 17 62 1.6 12.9 0.00 0.00 0.00 85 1012.4
20200531061011 17 354 1.6 12.9 0.00 0.00 0.00 84 1012.4
20200531060508 17 37 6.4 8.0 0.00 0.00 0.00 84 1012.5
20200531060007 17 344 3.2 12.9 0.00 0.00 0.00 84 1012.5
20200531055510 17 48 3.2 12.9 0.00 0.00 0.00 83 1012.5
20200531055014 17 47 3.2 12.9 0.00 0.00 0.00 83 1012.5
20200531054508 17 20 1.6 16.1 0.00 0.00 0.00 83 1012.5
20200531054008 17 14 4.8 16.1 0.00 0.00 0.00 83 1012.6
20200531053510 17 17 9.7 16.1 0.00 0.00 0.00 84 1012.6
20200531053010 17 107 4.8 16.1 0.00 0.00 0.00 84 1012.6
20200531052509 17 6 8.0 16.1 0.00 0.00 0.00 83 1012.6
20200531052007 17 346 8.0 16.1 0.00 0.00 0.00 84 1012.6
20200531051510 17 35 9.7 16.1 0.00 0.00 0.00 85 1012.6
20200531051010 17 7 6.4 16.1 0.00 0.00 0.00 86 1012.6
20200531050509 17 4 8.0 20.9 0.00 0.00 0.00 86 1012.6
20200531050008 17 350 6.4 20.9 0.00 0.00 0.00 85 1012.6
20200531045510 17 178 1.6 27.4 0.00 0.00 0.00 85 1012.6
20200531045009 17 14 4.8 27.4 0.00 0.00 0.00 85 1012.6
20200531044506 17 342 16.1 24.1 0.00 0.00 0.00 85 1012.6
20200531044008 17 25 9.7 24.1 0.00 0.00 0.00 85 1012.6
20200531043509 17 340 14.5 24.1 0.00 0.00 0.00 85 1012.5
20200531043009 17 14 9.7 24.1 0.00 0.00 0.00 85 1012.5
20200531042505 17 20 8.0 20.9 0.00 0.00 0.00 85 1012.5
20200531042007 17 2 9.7 24.1 0.00 0.00 0.00 85 1012.4
20200531041508 17 18 8.0 24.1 0.00 0.00 0.00 84 1012.5
20200531041009 17 357 9.7 27.4 0.00 0.00 0.00 84 1012.3
20200531040505 17 348 22.5 27.4 0.00 0.00 0.00 84 1012.3
20200531040007 17 14 6.4 24.1 0.00 0.00 0.00 84 1012.3
20200531035507 18 320 14.5 24.1 0.00 0.00 0.00 83 1012.3
20200531035012 18 351 8.0 24.1 0.00 0.00 0.00 84 1012.2
20200531034508 18 16 8.0 27.4 0.00 0.00 0.00 83 1012.1
20200531034005 18 354 6.4 27.4 0.00 0.00 0.00 83 1012.2
20200531033506 18 22 11.3 40.2 0.00 0.00 0.00 83 1012.2
20200531033008 18 29 11.3 40.2 0.00 0.00 0.00 83 1012.1
20200531032507 18 338 14.5 32.2 0.00 0.00 0.00 82 1012.0
20200531032004 18 345 22.5 32.2 0.00 0.00 0.00 82 1012.0
20200531031504 18 341 19.3 40.2 0.00 0.00 0.00 82 1012.0
20200531031007 18 114 9.7 40.2 0.00 0.00 0.00 81 1012.0
20200531030511 18 344 17.7 27.4 0.00 0.00 0.00 81 1011.9
20200531030004 18 25 16.1 24.1 0.00 0.00 0.00 81 1011.9
20200531025504 18 335 16.1 37.0 0.00 0.00 0.00 80 1012.0
20200531025007 18 10 14.5 37.0 0.00 0.00 0.00 80 1012.1
20200531024507 18 351 20.9 37.0 0.00 0.00 0.00 80 1012.0
20200531024006 18 0 17.7 32.2 0.00 0.00 0.00 80 1012.0
20200531023503 19 10 9.7 24.1 0.00 0.00 0.00 79 1012.0
20200531023006 19 355 12.9 24.1 0.00 0.00 0.00 78 1012.0
20200531022506 19 20 16.1 24.1 0.00 0.00 0.00 78 1011.9
20200531022005 19 7 6.4 27.4 0.00 0.00 0.00 77 1012.0
20200531021505 19 341 14.5 27.4 0.00 0.00 0.00 77 1011.9
20200531021007 20 344 9.7 24.1 0.00 0.00 0.00 76 1011.9
20200531020506 20 347 11.3 27.4 0.00 0.00 0.00 75 1011.9
20200531020006 20 323 12.9 37.0 0.00 0.00 0.00 73 1011.8
20200531015505 20 9 16.1 37.0 0.00 0.00 0.00 70 1011.8
20200531015005 20 10 14.5 40.2 0.00 0.00 0.00 69 1011.7
20200531014510 20 342 24.1 40.2 0.00 0.00 0.00 68 1011.6
20200531014002 20 7 11.3 37.0 0.00 0.00 0.00 66 1011.6
20200531013505 21 3 11.3 37.0 0.00 0.00 0.00 65 1011.6
20200531013005 21 329 8.0 37.0 0.00 0.00 0.00 64 1011.5
20200531012505 21 334 16.1 24.1 0.00 0.00 0.00 63 1011.6
20200531012002 21 341 11.3 27.4 0.00 0.00 0.00 64 1011.6
20200531011504 21 354 12.9 27.4 0.00 0.00 0.00 63 1011.6
20200531011005 21 353 9.7 24.1 0.00 0.00 0.00 64 1011.4
20200531010504 21 36 8.0 24.1 0.00 0.00 0.00 64 1011.5
20200531010003 21 9 9.7 32.2 0.00 0.00 0.00 64 1011.5
20200531005501 21 212 11.3 32.2 0.00 0.00 0.00 64 1011.5
20200531005003 21 333 19.3 27.4 0.00 0.00 0.00 65 1011.7
20200531004504 21 339 4.8 27.4 0.00 0.00 0.00 67 1011.7
20200531004000 21 356 6.4 27.4 0.00 0.00 0.00 69 1011.9
20200531003501 21 266 12.9 37.0 0.00 0.00 0.00 69 1011.9
20200531003004 21 326 4.8 37.0 0.00 0.00 0.00 68 1012.0
20200531002503 21 22 12.9 32.2 0.00 0.00 0.00 66 1011.9
20200531002004 21 3 6.4 27.4 0.00 0.00 0.00 67 1011.9
20200531001500 21 315 11.3 27.4 0.00 0.00 0.00 68 1012.0
20200531001000 21 309 9.7 27.4 0.00 0.00 0.00 69 1012.0
20200531000509 21 297 9.7 24.1 0.00 0.00 0.00 68 1012.1
20200531000003 21 43 6.4 27.4 0.00 0.00 0.00 69 1012.0
20200530235459 21 330 8.0 27.4 0.00 0.00 0.00 67 1012.1
20200530235003 21 249 8.0 32.2 0.00 0.00 0.00 69 1012.1
20200530234503 21 335 9.7 32.2 0.00 0.00 0.00 69 1012.1
20200530234002 21 337 11.3 24.1 0.00 0.00 0.00 69 1012.1
20200530233500 21 308 11.3 20.9 0.00 0.00 0.00 69 1012.2
20200530232959 21 330 8.0 27.4 0.00 0.00 0.00 70 1012.1
20200530232502 21 262 6.4 27.4 0.00 0.00 0.00 70 1012.2
20200530232002 21 264 6.4 20.9 0.00 0.00 0.00 69 1012.2
20200530231459 21 337 8.0 24.1 0.00 0.00 0.00 69 1012.4
20200530230959 21 335 9.7 24.1 0.00 0.00 0.00 70 1012.2
20200530230502 21 257 8.0 24.1 0.00 0.00 0.00 70 1012.4
20200530230002 21 183 6.4 27.4 0.00 0.00 0.00 70 1012.4
20200530225501 21 18 9.7 27.4 0.00 0.00 0.00 70 1012.3
20200530224958 21 357 12.9 24.1 0.00 0.00 0.00 70 1012.4
20200530224502 21 57 6.4 24.1 0.00 0.00 0.00 70 1012.5
20200530224003 21 314 9.7 24.1 0.00 0.00 0.00 71 1012.5
20200530223500 21 303 9.7 27.4 0.00 0.00 0.00 70 1012.5
20200530223001 21 270 9.7 27.4 0.00 0.00 0.00 71 1012.5
20200530222501 21 322 8.0 20.9 0.00 0.00 0.00 70 1012.5
20200530222001 21 311 8.0 20.9 0.00 0.00 0.00 71 1012.6
20200530221457 21 279 9.7 32.2 0.00 0.00 0.00 69 1012.6
20200530220957 21 15 3.2 32.2 0.00 0.00 0.00 70 1012.5
20200530220500 21 20 3.2 27.4 0.00 0.00 0.00 70 1012.7
20200530220001 21 317 4.8 27.4 0.00 0.00 0.00 71 1012.6
20200530215500 21 22 3.2 24.1 0.00 0.00 0.00 71 1012.6
20200530214957 21 7 9.7 24.1 0.00 0.00 0.00 69 1012.6
20200530214501 21 251 12.9 27.4 0.00 0.00 0.00 68 1012.7
20200530214000 21 90 19.3 27.4 0.00 0.00 0.00 68 1012.8
20200530213459 21 341 6.4 24.1 0.00 0.00 0.00 69 1012.8
20200530212957 21 335 6.4 27.4 0.00 0.00 0.00 70 1012.8
20200530212458 21 327 4.8 27.4 0.00 0.00 0.00 70 1012.8
20200530211959 21 59 8.0 27.4 0.00 0.00 0.00 69 1012.8
20200530211457 21 226 8.0 27.4 0.00 0.00 0.00 68 1012.8
20200530210959 21 254 14.5 27.4 0.00 0.00 0.00 68 1012.8
20200530210456 21 261 14.5 27.4 0.00 0.00 0.00 66 1012.8
20200530205958 21 335 14.5 27.4 0.00 0.00 0.00 68 1012.9
20200530205503 21 32 14.5 24.1 0.00 0.00 0.00 68 1012.9
20200530204956 21 214 9.7 27.4 0.00 0.00 0.00 68 1012.9
20200530204456 21 10 11.3 27.4 0.00 0.00 0.00 68 1013.0
20200530203959 21 326 8.0 20.9 0.00 0.00 0.00 68 1013.0
20200530203457 21 317 12.9 20.9 0.00 0.00 0.00 65 1013.1
20200530202957 21 1 8.0 20.9 0.00 0.00 0.00 66 1013.0
20200530202455 21 249 8.0 24.1 0.00 0.00 0.00 67 1013.0
20200530201958 21 296 12.9 24.1 0.00 0.00 0.00 66 1013.0
20200530201458 21 311 6.4 27.4 0.00 0.00 0.00 66 1013.1
20200530200955 21 71 1.6 27.4 0.00 0.00 0.00 67 1013.1
20200530200455 21 12 11.3 27.4 0.00 0.00 0.00 62 1013.1
20200530195958 21 332 8.0 24.1 0.00 0.00 0.00 62 1013.2
20200530195456 21 352 19.3 27.4 0.00 0.00 0.00 64 1013.1
20200530194956 21 339 17.7 27.4 0.00 0.00 0.00 63 1013.1
20200530194456 21 342 12.9 27.4 0.00 0.00 0.00 62 1013.0
20200530193958 20 13 9.7 27.4 0.00 0.00 0.00 62 1013.0
20200530193457 20 355 1.6 27.4 0.00 0.00 0.00 63 1013.2
20200530192956 20 14 11.3 27.4 0.00 0.00 0.00 64 1013.2
20200530192456 20 328 8.0 27.4 0.00 0.00 0.00 63 1013.3
20200530191957 19 338 19.3 27.4 0.00 0.00 0.00 65 1013.3
20200530191457 19 357 12.9 32.2 0.00 0.00 0.00 65 1013.3
20200530190956 19 355 14.5 32.2 0.00 0.00 0.00 67 1013.4
20200530190454 18 9 17.7 27.4 0.00 0.00 0.00 67 1013.5
20200530185957 18 312 11.3 32.2 0.00 0.00 0.00 68 1013.5
20200530185457 18 331 20.9 37.0 0.00 0.00 0.00 69 1013.4
20200530184953 18 338 11.3 37.0 0.00 0.00 0.00 69 1013.5
20200530184453 18 326 17.7 27.4 0.00 0.00 0.00 69 1013.5
20200530183955 18 9 14.5 27.4 0.00 0.00 0.00 69 1013.5
20200530183456 18 345 20.9 27.4 0.00 0.00 0.00 69 1013.6
20200530182953 18 37 9.7 27.4 0.00 0.00 0.00 69 1013.5
20200530182453 19 34 11.3 27.4 0.00 0.00 0.00 68 1013.5
20200530181956 19 350 16.1 27.4 0.00 0.00 0.00 69 1013.4
20200530181457 19 351 14.5 27.4 0.00 0.00 0.00 68 1013.5
20200530180955 19 348 20.9 27.4 0.00 0.00 0.00 69 1013.5
20200530180452 19 334 11.3 27.4 0.00 0.00 0.00 71 1013.6
20200530175954 19 344 3.2 27.4 0.00 0.00 0.00 71 1013.6
20200530175455 19 309 8.0 20.9 0.00 0.00 0.00 69 1013.6
20200530174954 19 327 8.0 27.4 0.00 0.00 0.00 69 1013.6
20200530174452 19 4 9.7 27.4 0.00 0.00 0.00 71 1013.6
20200530173952 19 5 4.8 20.9 0.00 0.00 0.00 69 1013.5
20200530173455 19 10 11.3 20.9 0.00 0.00 0.00 71 1013.4
20200530172955 18 353 9.7 27.4 0.00 0.00 0.00 72 1013.5
20200530172451 18 342 14.5 27.4 0.00 0.00 0.00 71 1013.5
20200530171951 18 358 9.7 20.9 0.00 0.00 0.00 70 1013.4
20200530171454 18 333 1.6 24.1 0.00 0.00 0.00 73 1013.5
20200530170955 18 5 9.7 24.1 0.00 0.00 0.00 72 1013.6
20200530170451 18 0 9.7 20.9 0.00 0.00 0.00 71 1013.7
20200530165951 18 0 11.3 24.1 0.00 0.00 0.00 73 1013.6
20200530165454 18 339 9.7 27.4 0.00 0.00 0.00 72 1013.7
20200530164954 18 338 20.9 27.4 0.00 0.00 0.00 70 1013.7
20200530164451 18 348 12.9 24.1 0.00 0.00 0.00 71 1013.8
20200530163951 18 321 9.7 27.4 0.00 0.00 0.00 72 1013.8
20200530162954 18 321 12.9 24.1 0.00 0.00 0.00 72 1013.8
20200530162452 18 18 9.7 24.1 0.00 0.00 0.00 73 1013.8
20200530161952 18 351 16.1 24.1 0.00 0.00 0.00 72 1013.8
20200530161454 18 344 4.8 24.1 0.00 0.00 0.00 73 1013.8
20200530160954 18 301 9.7 24.1 0.00 0.00 0.00 72 1013.8
20200530160452 18 159 4.8 20.9 0.00 0.00 0.00 72 1013.8
20200530155950 18 4 12.9 20.9 0.00 0.00 0.00 73 1013.8
20200530155452 18 16 3.2 16.1 0.00 0.00 0.00 73 1013.8
20200530154952 18 352 6.4 20.9 0.00 0.00 0.00 70 1013.8
20200530154451 17 19 3.2 20.9 0.00 0.00 0.00 73 1013.8
20200530153951 17 9 12.9 20.9 0.00 0.00 0.00 74 1013.9
20200530153451 17 335 8.0 16.1 0.00 0.00 0.00 73 1014.0
20200530152953 17 356 6.4 16.1 0.00 0.00 0.00 75 1013.9
20200530152452 17 12 11.3 16.1 0.00 0.00 0.00 75 1013.9
20200530151950 17 12 4.8 20.9 0.00 0.00 0.00 75 1013.8
20200530151452 17 341 12.9 20.9 0.00 0.00 0.00 77 1013.8
20200530150952 17 336 9.7 20.9 0.00 0.00 0.00 78 1013.9
20200530150448 17 129 6.4 16.1 0.00 0.00 0.00 76 1013.8
20200530145948 17 321 6.4 16.1 0.00 0.00 0.00 76 1013.9
20200530145450 17 15 11.3 20.9 0.00 0.00 0.00 76 1013.8
20200530144951 17 359 14.5 20.9 0.00 0.00 0.00 76 1013.7
20200530144448 17 27 8.0 16.1 0.00 0.00 0.00 76 1013.6
20200530143950 17 7 4.8 20.9 0.00 0.00 0.00 76 1013.7
20200530143450 16 356 4.8 24.1 0.00 0.00 0.00 77 1013.6
20200530142952 16 334 12.9 24.1 0.00 0.00 0.00 77 1013.6
20200530142450 16 14 6.4 24.1 0.00 0.00 0.00 78 1013.6
20200530141947 16 342 14.5 24.1 0.00 0.00 0.00 78 1013.6
20200530141447 16 356 14.5 24.1 0.00 0.00 0.00 77 1013.6
20200530140950 16 335 9.7 20.9 0.00 0.00 0.00 77 1013.4
20200530140451 16 22 6.4 20.9 0.00 0.00 0.00 77 1013.4
20200530135947 16 352 14.5 20.9 0.00 0.00 0.00 78 1013.4
20200530135451 16 346 14.5 20.9 0.00 0.00 0.00 77 1013.3
20200530134954 16 338 9.7 24.1 0.00 0.00 0.00 78 1013.3
20200530134451 16 12 9.7 24.1 0.00 0.00 0.00 78 1013.3
20200530133947 16 23 6.4 16.1 0.00 0.00 0.00 78 1013.3
20200530133446 16 11 6.4 20.9 0.00 0.00 0.00 78 1013.3
20200530132948 16 2 12.9 24.1 0.00 0.00 0.00 78 1013.3
20200530132449 16 72 4.8 24.1 0.00 0.00 0.00 79 1013.3
20200530131948 16 9 17.7 24.1 0.00 0.00 0.00 78 1013.2
20200530131446 16 15 6.4 16.1 0.00 0.00 0.00 79 1013.2
20200530130950 16 22 9.7 24.1 0.00 0.00 0.00 79 1013.2
20200530130448 16 9 14.5 24.1 0.00 0.00 0.00 80 1013.2
20200530125948 16 16 8.0 20.9 0.00 0.00 0.00 80 1013.1
20200530125448 16 10 14.5 20.9 0.00 0.00 0.00 80 1013.2
20200530124949 16 20 11.3 20.9 0.00 0.00 0.00 80 1013.1
20200530124448 16 22 8.0 16.1 0.00 0.00 0.00 83 1013.1
20200530123945 16 34 9.7 24.1 0.00 0.00 0.00 83 1012.9
20200530123448 16 31 12.9 24.1 0.00 0.00 0.00 83 1012.9
20200530122948 16 13 9.7 20.9 0.00 0.00 0.00 84 1012.9
20200530122448 16 6 9.7 24.1 0.00 0.00 0.00 84 1012.9
20200530121949 16 16 8.0 24.1 0.00 0.00 0.00 84 1012.9
20200530121447 16 9 4.8 20.9 0.00 0.00 0.00 85 1013.0
20200530120949 16 14 6.4 20.9 0.00 0.00 0.00 85 1012.9
20200530120448 16 358 14.5 20.9 0.00 0.00 0.00 85 1012.8
20200530115945 16 21 6.4 16.1 0.00 0.00 0.00 86 1012.8
20200530115444 16 20 6.4 16.1 0.00 0.00 0.00 86 1012.7
20200530114946 16 27 9.7 24.1 0.00 0.00 0.00 86 1012.6
20200530114447 16 354 14.5 24.1 0.00 0.00 0.00 86 1012.6
20200530113944 16 9 8.0 20.9 0.00 0.00 0.00 86 1012.6
20200530113444 16 104 3.2 20.9 0.00 0.00 0.00 86 1012.6
20200530112945 16 7 6.4 20.9 0.00 0.00 0.00 86 1012.6
20200530112447 16 24 8.0 24.1 0.00 0.00 0.00 86 1012.6
20200530111950 16 10 8.0 24.1 0.00 0.00 0.00 86 1012.7
20200530111444 16 353 11.3 20.9 0.00 0.00 0.00 86 1012.7
20200530110943 16 13 4.8 24.1 0.00 0.00 0.00 85 1012.7
20200530110446 16 10 4.8 24.1 0.00 0.00 0.00 85 1012.7
20200530105946 16 354 8.0 16.1 0.00 0.00 0.00 85 1012.8
20200530105443 16 16 8.0 16.1 0.00 0.00 0.00 85 1012.7
20200530104943 16 23 4.8 16.1 0.00 0.00 0.00 85 1012.8
20200530104446 16 11 4.8 16.1 0.00 0.00 0.00 85 1012.9
20200530103945 16 3 9.7 16.1 0.00 0.00 0.00 85 1012.8
20200530103442 16 13 3.2 12.9 0.00 0.00 0.00 85 1012.7
20200530102942 16 354 3.2 12.9 0.00 0.00 0.00 84 1012.7
20200530102445 16 14 1.6 8.0 0.00 0.00 0.00 84 1012.7
20200530101945 16 328 0.0 8.0 0.00 0.00 0.00 84 1012.7
20200530101445 16 318 4.8 12.9 0.00 0.00 0.00 84 1012.8
20200530100942 16 323 3.2 12.9 0.00 0.00 0.00 84 1012.8
20200530100445 16 348 1.6 8.0 0.00 0.00 0.00 84 1012.8
20200530095949 16 272 0.0 3.2 0.00 0.00 0.00 85 1012.7
20200530095443 16 284 0.0 3.2 0.00 0.00 0.00 85 1012.9
20200530094942 16 312 0.0 3.2 0.00 0.00 0.00 85 1012.7
20200530094458 16 297 0.0 3.2 0.00 0.00 0.00 85 1012.7
20200530093944 16 284 0.0 3.2 0.00 0.00 0.00 85 1012.7
20200530093441 17 253 0.0 3.2 0.00 0.00 0.00 84 1012.7
20200530092943 17 287 0.0 3.2 0.00 0.00 0.00 83 1012.7
20200530092445 17 305 0.0 3.2 0.00 0.00 0.00 83 1012.7
20200530091944 17 328 0.0 3.2 0.00 0.00 0.00 83 1012.8
20200530091441 17 285 0.0 3.2 0.00 0.00 0.00 83 1012.7
20200530090943 17 26 0.0 3.2 0.00 0.00 0.00 83 1012.8
20200530090444 17 338 1.6 12.9 0.00 0.00 0.00 83 1012.8
20200530085944 17 18 1.6 12.9 0.00 0.00 0.00 84 1012.9
20200530085444 17 329 3.2 8.0 0.00 0.00 0.00 84 1013.1
20200530084940 17 320 1.6 8.0 0.00 0.00 0.00 84 1013.1
20200530084442 17 50 3.2 8.0 0.00 0.00 0.00 83 1013.0
20200530083943 16 40 0.0 8.0 0.00 0.00 0.00 83 1013.2
20200530083440 16 38 1.6 8.0 0.00 0.00 0.00 83 1013.2
20200530082940 17 350 0.0 0.0 0.00 0.00 0.00 84 1013.3
20200530082442 17 317 0.0 0.0 0.00 0.00 0.00 84 1013.4
20200530081942 17 296 0.0 0.0 0.00 0.00 0.00 84 1013.5
20200530081440 17 159 0.0 0.0 0.00 0.00 0.00 83 1013.5
20200530080939 17 227 0.0 0.0 0.00 0.00 0.00 83 1013.6
20200530080440 17 4 0.0 3.2 0.00 0.00 0.00 83 1013.7
20200530075942 17 356 0.0 8.0 0.00 0.00 0.00 83 1013.9
20200530075442 17 64 1.6 8.0 0.00 0.00 0.00 83 1013.9
20200530074943 17 70 0.0 3.2 0.00 0.00 0.00 83 1014.0
20200530074439 17 357 0.0 3.2 0.00 0.00 0.00 83 1014.1
20200530073942 17 356 0.0 8.0 0.00 0.00 0.00 83 1014.1